Location: Oriwa
(40.7500°S, 175.3333°E)
Time: 12:09:23
(UTC+00:00)

H-2A R/B - Pass Details

Date: 03 February 2023
Orbit: 732 x 836 km, 98.2° (Epoch: 30 March)

Event Time Altitude Azimuth Distance (km) Brightness Sun altitude
Rises 16:46:06 0° 23° (NNE) 3,278 5.2 -8.1°
Reaches altitude 10° 16:48:27 10° 25° (NNE) 2,341 4.5 -7.7°
Maximum altitude 16:53:34 65° 106° (ESE) 851 2.6 -6.8°
Drops below altitude 10° 16:58:36 10° 187° (S) 2,308 4.8 -6.0°
Sets 17:00:54 0° 189° (S) 3,228 5.5 -5.6°
